Location: McFarlands Corners
(41.4117°N, 81.3382°W)
Time: 15:39:58
(UTC+00:00)

Transit 2A - Pass Details

Date: 20 February 2026
Orbit: 590 x 954 km, 66.7° (Epoch: 7 March)

Event Time Altitude Azimuth Distance (km) Brightness Sun altitude
Rises 00:36:12 0° 338° (NNW) 3,592 9.8 -17.9°
Reaches altitude 10° 00:39:48 10° 357° (N) 2,600 8.8 -18.6°
Maximum altitude 00:43:40 17° 37° (NE) 2,064 7.9 -19.3°
Enters shadow 00:43:51 17° 40° (NE) 2,062 7.9 -19.3°
